INSAT-3D

Last updated on Sun Apr 12 2026 00:02:26 GMT+0000 (Coordinated Universal Time)

1 39216U 13038B 26101.49141918 -.00000336 00000+0 00000+0 0 9994 2 39216 1.7527 83.3625 0001355 264.3604 158.4140 1.00272908 46418
UTC large
Height (km)
Speed (km/s)
/
Latitude / Longitude
Inclination (degrees)
Orbital Period (minutes)
Azimuth
Elevation
Range (km)
Doppler Factor

Next 0 passes for location: London (51.5072 / 0.1276)

Sorry there are no passes over London.
INSAT-3D